N4OGP-WX Weather Reports


Display with metric or nautical units.
time (UTC)temp
F
wind
direction
speed
MPH
gust
MPH
rain 1hr
in
rain 24hr
in
rain mn
in
humidity
%
barometer
mb
20260505041626 75 285 0.0 0.0 0.00 0.27 0.27 42 1020.4
20260505041526 63 286 0.0 1.0 0.00 0.27 0.27 73 1012.0
20260505041426 63 268 0.0 1.0 0.00 0.27 0.27 73 1012.0
20260505041326 64 265 0.0 0.0 0.00 0.27 0.27 73 1012.0
20260505041226 75 265 0.0 0.0 0.00 0.27 0.27 42 1020.4
20260505041126 64 319 0.0 0.0 0.00 0.27 0.27 72 1012.0
20260505040956 64 320 0.0 0.0 0.00 0.27 0.27 72 1012.1
20260505040856 75 315 0.0 0.0 0.00 0.27 0.27 42 1020.4
20260505040756 64 320 0.0 0.0 0.00 0.27 0.27 71 1012.1
20260505040656 64 320 0.0 0.0 0.00 0.27 0.27 71 1012.1
20260505040556 75 315 0.0 0.0 0.00 0.27 0.27 42 1020.4
20260505040456 64 320 0.0 0.0 0.00 0.27 0.27 71 1012.2
20260505040326 75 315 0.0 0.0 0.00 0.27 0.27 42 1020.4
20260505040226 64 320 0.0 0.0 0.00 0.27 0.27 71 1012.3
20260505040126 64 320 0.0 0.0 0.00 0.27 0.27 71 1012.3
20260505040026 75 319 0.0 0.0 0.00 0.27 0.27 42 1020.4
20260505035926 75 320 0.0 0.0 0.00 0.27 0.27 42 1020.4
20260505035826 65 320 0.0 0.0 0.00 0.27 0.27 70 1012.3
20260505035726 75 320 0.0 0.0 0.00 0.27 0.27 42 1020.4
20260505035556 65 320 0.0 0.0 0.00 0.27 0.27 69 1012.2
20260505035456 75 322 0.0 2.0 0.00 0.27 0.27 42 1020.4
20260505035356 65 290 0.0 2.0 0.00 0.27 0.27 70 1012.2
20260505035256 75 289 0.0 0.0 0.00 0.27 0.27 42 1020.4
20260505035156 75 289 0.0 0.0 0.00 0.27 0.27 42 1020.4
20260505035056 75 289 0.0 0.0 0.00 0.27 0.27 42 1020.4
20260505034956 75 289 0.0 0.0 0.00 0.27 0.27 42 1020.4
20260505034826 75 283 0.0 1.0 0.00 0.27 0.27 42 1020.4
20260505034726 65 294 0.0 1.0 0.00 0.27 0.27 69 1012.2
20260505034626 75 308 0.0 0.0 0.00 0.27 0.27 42 1020.4
20260505034526 65 309 0.0 0.0 0.00 0.27 0.27 69 1012.2
20260505034426 75 317 0.0 2.0 0.00 0.27 0.27 42 1020.4
20260505034256 65 344 0.0 0.0 0.00 0.27 0.27 69 1012.1
20260505034156 65 344 0.0 0.0 0.00 0.27 0.27 69 1012.2
20260505034056 75 328 0.0 0.0 0.00 0.27 0.27 42 1020.4
20260505033956 65 344 0.0 0.0 0.00 0.27 0.27 68 1012.2
20260505033856 65 344 0.0 0.0 0.00 0.27 0.27 69 1012.1
20260505033726 75 301 0.0 1.0 0.00 0.27 0.27 42 1020.4
20260505033556 65 302 0.0 1.0 0.00 0.27 0.27 68 1012.2
20260505033456 75 345 0.0 0.0 0.00 0.27 0.27 42 1020.4
20260505033356 65 352 0.0 0.0 0.00 0.27 0.27 68 1012.1
20260505033226 75 16 0.0 0.0 0.00 0.27 0.27 42 1020.4
20260505033126 75 142 0.0 0.0 0.00 0.27 0.27 42 1020.4
20260505033026 65 120 0.0 0.0 0.00 0.27 0.27 69 1012.1
20260505032926 65 125 0.0 1.0 0.00 0.27 0.27 69 1012.1
20260505032756 75 102 0.0 3.0 0.00 0.27 0.27 42 1020.4
20260505032656 65 272 0.0 2.0 0.00 0.27 0.27 69 1012.2
20260505032526 65 271 0.0 0.0 0.00 0.27 0.27 69 1012.3
20260505032426 75 271 0.0 1.0 0.00 0.27 0.27 42 1020.4
20260505032326 75 160 0.0 3.0 0.00 0.27 0.27 42 1020.4
20260505032226 65 157 0.0 3.0 0.00 0.27 0.27 70 1012.2
20260505032056 65 158 0.0 0.0 0.00 0.27 0.27 70 1012.3
20260505031956 75 164 0.0 0.0 0.00 0.27 0.27 42 1020.4
20260505031826 65 158 0.0 0.0 0.00 0.27 0.27 69 1012.3
20260505031726 65 158 0.0 0.0 0.00 0.27 0.27 69 1012.3
20260505031626 75 164 0.0 0.0 0.00 0.27 0.27 42 1020.4
20260505031526 65 158 0.0 0.0 0.00 0.27 0.27 69 1012.2
20260505031356 75 164 0.0 0.0 0.00 0.27 0.27 42 1020.4
20260505031226 75 164 0.0 0.0 0.00 0.27 0.27 42 1020.4
20260505031126 75 164 0.0 0.0 0.00 0.27 0.27 42 1020.4
20260505031026 75 164 0.0 0.0 0.00 0.27 0.27 42 1020.4
20260505030926 65 158 0.0 0.0 0.00 0.27 0.27 69 1012.2
20260505030826 65 158 0.0 0.0 0.00 0.27 0.27 69 1012.1
20260505030656 65 158 0.0 0.0 0.00 0.27 0.27 69 1012.1
20260505030556 75 161 0.0 2.0 0.00 0.27 0.27 42 1020.4
20260505030426 65 176 0.0 2.0 0.00 0.27 0.27 69 1012.0
20260505030326 65 202 0.0 1.0 0.00 0.27 0.27 69 1012.0
20260505030226 75 196 0.0 0.0 0.00 0.27 0.27 42 1020.4
20260505030056 66 200 0.0 0.0 0.00 0.27 0.27 69 1012.1
20260505025956 66 197 0.0 2.0 0.00 0.27 0.27 69 1012.1
20260505025856 66 156 0.0 2.0 0.00 0.27 0.27 69 1012.1
20260505025726 66 149 0.0 0.0 0.00 0.27 0.27 69 1012.1
20260505025556 75 149 0.0 0.0 0.00 0.27 0.27 42 1020.4
20260505025456 66 149 0.0 0.0 0.00 0.27 0.27 68 1012.1
20260505025356 66 149 0.0 0.0 0.00 0.27 0.27 68 1012.1
20260505025226 75 149 0.0 0.0 0.00 0.27 0.27 42 1020.4
20260505025126 75 149 0.0 0.0 0.00 0.27 0.27 42 1020.4
20260505025026 75 149 0.0 0.0 0.00 0.27 0.27 42 1020.4
20260505024856 67 149 0.0 0.0 0.00 0.27 0.27 67 1012.1
20260505024756 67 149 0.0 0.0 0.00 0.27 0.27 67 1012.1
20260505024656 75 149 0.0 0.0 0.00 0.27 0.27 42 1020.4
20260505024556 67 149 0.0 0.0 0.00 0.27 0.27 67 1012.1
20260505024426 67 149 0.0 0.0 0.00 0.27 0.27 66 1012.1
20260505024326 75 149 0.0 1.0 0.00 0.27 0.27 42 1020.4
20260505024226 67 127 0.0 1.0 0.00 0.27 0.27 67 1012.2
20260505024056 67 129 0.0 2.0 0.00 0.27 0.27 67 1012.1
20260505023926 75 271 0.0 1.0 0.00 0.27 0.27 42 1020.4
20260505023826 67 253 0.0 1.0 0.00 0.27 0.27 66 1012.1
20260505023726 67 187 0.0 0.0 0.00 0.27 0.27 66 1012.1
20260505023626 75 179 0.0 0.0 0.00 0.27 0.27 42 1020.4
20260505023526 67 213 0.0 1.0 0.00 0.27 0.27 65 1012.1
20260505023426 75 265 0.0 0.0 0.00 0.27 0.27 42 1020.4
20260505023326 75 281 0.0 1.0 0.00 0.27 0.27 42 1020.4
20260505023226 67 314 0.0 1.0 0.00 0.27 0.27 65 1012.2
20260505023056 75 142 0.0 0.0 0.00 0.27 0.27 42 1020.4
20260505022956 67 142 0.0 0.0 0.00 0.27 0.27 64 1012.3
20260505022856 67 142 0.0 1.0 0.00 0.27 0.27 64 1012.3
20260505022756 75 324 0.0 1.0 0.00 0.27 0.27 42 1020.4
20260505022626 67 317 0.0 1.0 0.00 0.27 0.27 65 1012.3
20260505022526 75 165 0.0 2.0 0.00 0.27 0.27 42 1020.4
20260505022426 67 108 0.0 2.0 0.00 0.27 0.27 65 1012.2
20260505022326 67 24 0.0 0.0 0.00 0.27 0.27 66 1012.1
20260505022226 75 16 0.0 1.0 0.00 0.27 0.27 42 1020.4
20260505022056 67 294 0.0 2.0 0.00 0.27 0.27 66 1012.2
20260505021956 75 186 0.0 0.0 0.00 0.27 0.27 42 1020.4
20260505021856 75 167 0.0 1.0 0.00 0.27 0.27 42 1020.4
20260505021756 75 209 0.0 3.0 0.00 0.27 0.27 42 1020.4
20260505021626 67 138 0.0 3.0 0.00 0.27 0.27 66 1012.2
20260505021526 75 174 1.0 0.0 0.00 0.27 0.27 42 1020.4
20260505021356 67 187 0.0 5.0 0.00 0.27 0.27 65 1012.2
20260505021256 75 299 0.0 1.0 0.00 0.27 0.27 42 1020.4
20260505021156 67 6 0.0 0.0 0.00 0.27 0.27 66 1012.1
20260505021056 66 13 0.0 2.0 0.00 0.27 0.27 66 1012.1
20260505020956 75 120 0.0 2.0 0.00 0.27 0.27 42 1020.4
20260505020856 66 332 0.0 2.0 0.00 0.27 0.27 66 1012.1
20260505020726 66 303 0.0 1.0 0.00 0.27 0.27 66 1012.1
20260505020626 66 166 0.0 2.0 0.00 0.27 0.27 67 1012.1
20260505020526 75 185 0.0 2.0 0.00 0.27 0.27 42 1020.4
20260505020426 66 188 0.0 0.0 0.00 0.27 0.27 67 1012.2
20260505020256 66 188 0.0 0.0 0.00 0.27 0.27 67 1012.2
20260505020126 66 199 0.0 3.0 0.00 0.27 0.27 68 1012.1
20260505020026 75 300 0.0 1.0 0.00 0.27 0.27 42 1020.4
20260505015926 66 312 0.0 0.0 0.00 0.27 0.27 68 1012.1
20260505015826 66 313 1.0 2.0 0.00 0.27 0.27 68 1012.1
20260505015726 75 319 0.0 1.0 0.00 0.27 0.27 42 1020.4
20260505015626 65 133 0.0 0.0 0.00 0.27 0.27 69 1012.0
20260505015456 75 134 0.0 0.0 0.00 0.27 0.27 42 1020.4
20260505015356 75 134 0.0 0.0 0.00 0.27 0.27 42 1020.4
20260505015256 65 134 0.0 0.0 0.00 0.27 0.27 69 1012.0
20260505015156 75 192 0.0 1.0 0.00 0.27 0.27 42 1020.4
20260505015056 65 217 0.0 0.0 0.00 0.27 0.27 69 1011.9
20260505014956 65 217 0.0 0.0 0.00 0.27 0.27 69 1011.9
20260505014856 75 215 0.0 2.0 0.00 0.27 0.27 42 1020.4
20260505014756 75 23 0.0 2.0 0.00 0.27 0.27 42 1020.4
20260505014626 65 187 0.0 2.0 0.00 0.27 0.27 70 1011.9
20260505014526 75 146 0.0 2.0 0.00 0.27 0.27 42 1020.4
20260505014426 75 148 0.0 0.0 0.00 0.27 0.27 42 1020.4
20260505014326 65 148 0.0 0.0 0.00 0.27 0.27 69 1011.9
20260505014226 65 148 0.0 0.0 0.00 0.27 0.27 69 1011.9
20260505014126 65 148 0.0 0.0 0.00 0.27 0.27 69 1011.9
20260505014026 66 148 0.0 0.0 0.00 0.27 0.27 68 1012.0
20260505013926 66 148 0.0 0.0 0.00 0.27 0.27 68 1012.1
20260505013826 66 148 0.0 0.0 0.00 0.27 0.27 68 1012.1
20260505013656 75 228 0.0 1.0 0.00 0.27 0.27 42 1020.4
20260505013556 66 268 0.0 0.0 0.00 0.27 0.27 67 1012.2
20260505013456 75 260 0.0 0.0 0.00 0.27 0.27 42 1020.4
20260505013356 75 260 0.0 0.0 0.00 0.27 0.27 42 1020.4
20260505013256 75 260 0.0 0.0 0.00 0.27 0.27 42 1020.4
20260505013156 75 260 0.0 0.0 0.00 0.27 0.27 42 1020.4
20260505013056 75 260 0.0 0.0 0.00 0.27 0.27 42 1020.4
20260505012926 75 260 0.0 0.0 0.00 0.27 0.27 42 1020.4
20260505012756 67 268 0.0 0.0 0.00 0.27 0.27 66 1012.2
20260505012626 75 260 0.0 0.0 0.00 0.27 0.27 42 1020.4
20260505012526 67 268 0.0 0.0 0.00 0.27 0.27 65 1012.3
20260505012426 67 268 0.0 0.0 0.00 0.27 0.27 65 1012.3
20260505012326 67 268 0.0 0.0 0.00 0.27 0.27 65 1012.3
20260505012226 67 268 0.0 0.0 0.00 0.27 0.27 65 1012.3
20260505012126 75 260 0.0 0.0 0.00 0.27 0.27 42 1020.4
20260505012026 75 194 0.0 1.0 0.00 0.27 0.27 42 1020.4
20260505011926 75 160 0.0 0.0 0.00 0.27 0.27 42 1020.4
20260505011826 67 249 0.0 1.0 0.00 0.27 0.27 64 1012.3
20260505011726 75 298 0.0 0.0 0.00 0.27 0.27 42 1020.4
20260505011626 75 298 0.0 0.0 0.00 0.27 0.27 42 1020.4
20260505011526 67 330 0.0 0.0 0.00 0.27 0.27 63 1012.2
20260505011426 75 298 0.0 0.0 0.00 0.27 0.27 42 1020.4
20260505011326 67 330 0.0 0.0 0.00 0.27 0.27 63 1012.2
20260505011226 75 298 0.0 0.0 0.00 0.27 0.27 42 1020.4
20260505011056 68 330 0.0 0.0 0.00 0.27 0.27 62 1012.3
20260505010956 68 327 0.0 1.0 0.00 0.27 0.27 62 1012.3
20260505010826 75 316 0.0 1.0 0.00 0.27 0.27 42 1020.4
20260505010726 68 337 0.0 0.0 0.00 0.27 0.27 62 1012.3
20260505010626 75 337 0.0 0.0 0.00 0.27 0.27 42 1020.4
20260505010526 75 337 0.0 0.0 0.00 0.27 0.27 42 1020.4
20260505010426 68 337 0.0 0.0 0.00 0.27 0.27 61 1012.3
20260505010256 68 337 0.0 0.0 0.00 0.27 0.27 61 1012.3
20260505010156 75 337 0.0 0.0 0.00 0.27 0.27 42 1020.4
20260505010056 75 337 0.0 0.0 0.00 0.27 0.27 42 1020.4
20260505005956 69 337 0.0 0.0 0.00 0.27 0.27 60 1012.5
20260505005856 69 337 0.0 0.0 0.00 0.27 0.27 60 1012.5
20260505005756 69 239 0.0 0.0 0.00 0.27 0.27 60 1012.5
20260505005656 75 230 0.0 0.0 0.00 0.27 0.27 42 1020.4
20260505005526 75 230 0.0 0.0 0.00 0.27 0.27 42 1020.4
20260505005426 75 230 0.0 0.0 0.00 0.27 0.27 42 1020.4
20260505005326 69 230 0.0 0.0 0.00 0.27 0.27 59 1012.5
20260505005226 75 222 0.0 0.0 0.00 0.27 0.27 42 1020.4
20260505005126 69 220 0.0 0.0 0.00 0.27 0.27 58 1012.6
20260505005026 75 220 0.0 1.0 0.00 0.27 0.27 42 1020.4
20260505004926 69 229 0.0 1.0 0.00 0.27 0.27 58 1012.6
20260505004826 69 243 0.0 0.0 0.00 0.27 0.27 58 1012.7
20260505004726 75 206 0.0 1.0 0.00 0.27 0.27 42 1020.4
20260505004626 69 182 0.0 0.0 0.00 0.27 0.27 57 1012.7
20260505004526 75 181 1.0 1.0 0.00 0.27 0.27 42 1020.4
20260505004426 75 176 1.0 5.0 0.00 0.27 0.27 42 1020.4
20260505004326 75 44 0.0 1.0 0.00 0.27 0.27 42 1020.4
20260505004156 70 225 0.0 1.0 0.00 0.27 0.27 57 1012.7
20260505004056 70 184 0.0 0.0 0.00 0.27 0.27 57 1012.7
20260505003956 70 184 0.0 0.0 0.00 0.27 0.27 57 1012.6
20260505003856 75 193 0.0 1.0 0.00 0.27 0.27 42 1020.4
20260505003756 70 160 0.0 0.0 0.00 0.27 0.27 57 1012.6
20260505003656 75 160 0.0 0.0 0.00 0.27 0.27 42 1020.4
20260505003526 75 150 0.0 1.0 0.00 0.27 0.27 42 1020.4
20260505003426 75 111 0.0 2.0 0.00 0.27 0.27 42 1020.4
20260505003326 70 324 0.0 0.0 0.00 0.27 0.27 56 1012.6
20260505003156 75 202 0.0 1.0 0.00 0.27 0.27 42 1020.4
20260505003056 70 210 0.0 1.0 0.00 0.27 0.27 56 1012.6
20260505002956 70 231 0.0 1.0 0.00 0.27 0.27 56 1012.6
20260505002826 70 254 0.0 1.0 0.00 0.27 0.27 55 1012.7
20260505002726 75 258 0.0 1.0 0.00 0.27 0.27 42 1020.4
20260505002626 71 277 0.0 1.0 0.00 0.27 0.27 55 1012.7
20260505002526 71 288 1.0 2.0 0.00 0.27 0.27 55 1012.7
20260505002426 75 160 1.0 5.0 0.00 0.27 0.27 42 1020.4
20260505002326 71 148 0.0 3.0 0.00 0.27 0.27 55 1012.8
20260505002226 71 325 0.0 3.0 0.00 0.27 0.27 55 1012.8
20260505002126 75 152 0.0 0.0 0.00 0.27 0.27 42 1020.4
20260505001956 75 188 0.0 0.0 0.00 0.27 0.27 42 1020.4
20260505001856 75 231 0.0 2.0 0.00 0.27 0.27 42 1020.4
20260505001756 75 269 0.0 2.0 0.00 0.27 0.27 42 1020.4
20260505001656 75 257 1.0 1.0 0.00 0.27 0.27 42 1020.4
20260505001556 71 169 0.0 2.0 0.00 0.27 0.27 55 1012.7
20260505001456 75 243 0.0 2.0 0.00 0.27 0.27 42 1020.4
20260505001356 71 279 0.0 1.0 0.00 0.27 0.27 55 1012.7
20260505001226 75 225 1.0 3.0 0.00 0.27 0.27 42 1020.4
20260505001126 75 184 1.0 3.0 0.00 0.27 0.27 42 1020.4
20260505001026 75 194 1.0 3.0 0.00 0.27 0.27 42 1020.4
20260505000926 71 252 1.0 3.0 0.00 0.27 0.27 54 1012.6
20260505000826 71 183 1.0 3.0 0.00 0.27 0.27 54 1012.6
20260505000726 71 212 2.0 6.0 0.00 0.27 0.27 54 1012.6
20260505000556 75 280 0.0 2.0 0.00 0.27 0.27 42 1020.4
20260505000456 75 277 0.0 1.0 0.00 0.27 0.27 42 1020.4
20260505000358 75 229 1.0 5.0 0.00 0.27 0.27 42 1020.4
20260505000256 71 239 0.0 1.0 0.00 0.27 0.27 54 1012.7
20260505000126 71 270 1.0 2.0 0.00 0.27 0.27 54 1012.8
20260505000026 75 314 1.0 3.0 0.00 0.27 0.27 42 1020.4
20260504235856 75 141 2.0 5.0 0.00 0.27 0.27 42 1020.4
20260504235756 75 263 1.0 5.0 0.00 0.27 0.27 42 1020.4
20260504235656 72 207 2.0 3.0 0.00 0.27 0.27 54 1012.8
20260504235556 72 250 2.0 3.0 0.00 0.27 0.27 53 1012.8
20260504235456 75 204 1.0 5.0 0.00 0.27 0.27 42 1020.4
20260504235356 75 258 0.0 3.0 0.00 0.27 0.27 42 1020.4
20260504235226 75 312 1.0 2.0 0.00 0.27 0.27 42 1020.4
20260504235126 72 321 1.0 3.0 0.00 0.27 0.27 53 1012.9
20260504235026 72 325 1.0 3.0 0.00 0.27 0.27 52 1013.0
20260504234926 72 203 1.0 5.0 0.00 0.27 0.27 52 1013.0
20260504234826 75 163 0.0 5.0 0.00 0.27 0.27 42 1020.4
20260504234726 75 143 1.0 2.0 0.00 0.27 0.27 42 1020.4
20260504234556 73 222 1.0 3.0 0.00 0.27 0.27 52 1013.0
20260504234426 73 332 1.0 5.0 0.00 0.27 0.27 52 1013.0
20260504234326 75 113 1.0 2.0 0.00 0.27 0.27 42 1020.4
20260504234226 75 206 1.0 2.0 0.00 0.27 0.27 42 1020.4
20260504234126 73 319 1.0 3.0 0.00 0.27 0.27 52 1013.0
20260504233956 75 331 1.0 3.0 0.00 0.27 0.27 42 1020.4
20260504233856 73 162 1.0 3.0 0.00 0.27 0.27 52 1013.0
20260504233756 73 236 2.0 3.0 0.00 0.27 0.27 52 1013.0
20260504233656 73 260 2.0 6.0 0.00 0.27 0.27 51 1013.0
20260504233556 74 157 2.0 3.0 0.00 0.27 0.27 51 1013.0
20260504233456 75 91 1.0 3.0 0.00 0.27 0.27 42 1020.4
20260504233356 75 158 1.0 3.0 0.00 0.27 0.27 42 1020.4
20260504233256 74 190 1.0 5.0 0.00 0.27 0.27 50 1013.0
20260504233156 74 179 1.0 5.0 0.00 0.27 0.27 50 1013.0
20260504233056 74 192 1.0 2.0 0.00 0.27 0.27 50 1013.1
20260504232926 74 250 1.0 2.0 0.00 0.27 0.27 49 1013.0
20260504232826 75 122 1.0 5.0 0.00 0.27 0.27 42 1020.4
20260504232726 74 318 0.0 2.0 0.00 0.27 0.27 50 1013.0
20260504232626 75 330 0.0 2.0 0.00 0.27 0.27 42 1020.4
20260504232456 74 316 0.0 3.0 0.00 0.27 0.27 49 1013.0
20260504232356 75 331 1.0 2.0 0.00 0.27 0.27 42 1020.4
20260504232256 74 346 1.0 3.0 0.00 0.27 0.27 49 1013.0
20260504232156 75 316 2.0 3.0 0.00 0.27 0.27 42 1020.4
20260504232056 75 296 2.0 6.0 0.00 0.27 0.27 42 1020.4
20260504231956 75 282 1.0 5.0 0.00 0.27 0.27 49 1013.0
20260504231856 75 305 1.0 6.0 0.00 0.27 0.27 49 1013.0
20260504231726 75 242 1.0 3.0 0.00 0.27 0.27 42 1020.4
20260504231626 75 328 2.0 3.0 0.00 0.27 0.27 49 1013.0
20260504231456 75 324 2.0 6.0 0.00 0.27 0.27 42 1020.4
20260504231356 75 246 1.0 3.0 0.00 0.27 0.27 48 1013.0
20260504231226 75 101 2.0 6.0 0.00 0.27 0.27 48 1013.0
20260504231126 75 170 1.0 6.0 0.00 0.27 0.27 42 1020.4
20260504231026 76 175 1.0 2.0 0.00 0.27 0.27 47 1013.1
20260504230856 75 250 2.0 6.0 0.00 0.27 0.27 42 1020.4
20260504230726 76 311 2.0 3.0 0.00 0.27 0.27 47 1013.2
20260504230556 76 241 1.0 3.0 0.00 0.27 0.27 47 1013.2
20260504230426 76 249 1.0 3.0 0.00 0.27 0.27 48 1013.2
20260504230326 75 171 1.0 3.0 0.00 0.27 0.27 42 1020.4
20260504230156 75 170 2.0 3.0 0.00 0.27 0.27 42 1020.4
20260504230056 75 322 2.0 7.0 0.00 0.27 0.27 42 1020.4
20260504225956 76 306 1.0 5.0 0.00 0.27 0.27 47 1013.3
20260504225826 76 321 1.0 2.0 0.00 0.27 0.27 47 1013.3
20260504225726 76 321 1.0 3.0 0.00 0.27 0.27 47 1013.3
20260504225626 76 119 1.0 5.0 0.00 0.27 0.27 47 1013.3
20260504225526 75 314 2.0 6.0 0.00 0.27 0.27 42 1020.4
20260504225356 76 268 1.0 3.0 0.00 0.27 0.27 47 1013.3
20260504225226 76 271 1.0 5.0 0.00 0.27 0.27 47 1013.2
20260504225056 75 352 1.0 6.0 0.00 0.27 0.27 42 1020.4
20260504224956 75 60 2.0 5.0 0.00 0.27 0.27 42 1020.4
20260504224856 77 114 2.0 6.0 0.00 0.27 0.27 46 1013.3
20260504224756 75 276 2.0 6.0 0.00 0.27 0.27 42 1020.4
20260504224626 75 207 2.0 3.0 0.00 0.27 0.27 42 1020.4
20260504224526 77 145 1.0 7.0 0.00 0.27 0.27 46 1013.4
20260504224426 75 308 1.0 2.0 0.00 0.27 0.27 42 1020.4
20260504224256 75 174 1.0 7.0 0.00 0.27 0.27 42 1020.4
20260504224156 75 220 1.0 2.0 0.00 0.27 0.27 42 1020.4
20260504224056 75 179 1.0 5.0 0.00 0.27 0.27 42 1020.4
20260504223956 75 244 2.0 5.0 0.00 0.27 0.27 42 1020.4
20260504223856 75 12 2.0 7.0 0.00 0.27 0.27 42 1020.4
20260504223756 77 151 2.0 7.0 0.00 0.27 0.27 46 1013.3
20260504223656 77 156 2.0 6.0 0.00 0.27 0.27 46 1013.3
20260504223556 77 146 2.0 5.0 0.00 0.27 0.27 46 1013.3
20260504223426 77 154 1.0 6.0 0.00 0.27 0.27 46 1013.3
20260504223326 77 272 0.0 3.0 0.00 0.27 0.27 46 1013.3
20260504223156 77 280 1.0 2.0 0.00 0.27 0.27 46 1013.2
20260504223056 77 238 1.0 3.0 0.00 0.27 0.27 47 1013.2
20260504222956 77 263 1.0 3.0 0.00 0.27 0.27 47 1013.3
20260504222856 75 190 1.0 3.0 0.00 0.27 0.27 42 1020.4
20260504222756 76 244 1.0 6.0 0.00 0.27 0.27 47 1013.3
20260504222656 76 264 1.0 3.0 0.00 0.27 0.27 47 1013.3
20260504222556 75 208 1.0 3.0 0.00 0.27 0.27 42 1020.4
20260504222426 76 216 2.0 3.0 0.00 0.27 0.27 48 1013.3
20260504222326 76 180 2.0 5.0 0.00 0.27 0.27 48 1013.4
20260504222226 75 231 2.0 5.0 0.00 0.27 0.27 42 1020.4
20260504222126 75 166 2.0 6.0 0.00 0.27 0.27 42 1020.4
20260504222026 75 85 2.0 6.0 0.00 0.27 0.27 42 1020.4
20260504221926 75 206 1.0 6.0 0.00 0.27 0.27 42 1020.4
20260504221826 76 113 2.0 7.0 0.00 0.27 0.27 47 1013.4
20260504221726 76 167 2.0 7.0 0.00 0.27 0.27 47 1013.4
20260504221626 76 120 1.0 3.0 0.00 0.27 0.27 47 1013.4
20260504221456 75 229 2.0 6.0 0.00 0.27 0.27 42 1020.4
20260504221356 77 176 2.0 7.0 0.00 0.27 0.27 47 1013.4
20260504221226 77 163 1.0 7.0 0.00 0.27 0.27 47 1013.4
20260504221126 75 216 1.0 6.0 0.00 0.27 0.27 42 1020.4
20260504220956 77 179 2.0 8.0 0.00 0.27 0.27 46 1013.4
20260504220826 75 217 1.0 3.0 0.00 0.27 0.27 42 1020.4
20260504220726 75 300 1.0 3.0 0.00 0.27 0.27 42 1020.4
20260504220556 75 173 1.0 7.0 0.00 0.27 0.27 42 1020.4
20260504220456 75 63 2.0 2.0 0.00 0.27 0.27 42 1020.4
20260504220356 76 254 2.0 6.0 0.00 0.27 0.27 46 1013.3
20260504220256 76 297 2.0 6.0 0.00 0.27 0.27 47 1013.4
20260504220156 77 177 2.0 5.0 0.00 0.27 0.27 47 1013.4
20260504220056 75 215 2.0 8.0 0.00 0.27 0.27 42 1020.4
20260504215926 75 234 2.0 8.0 0.00 0.27 0.27 42 1020.4
20260504215756 77 162 2.0 6.0 0.00 0.27 0.27 47 1013.5
20260504215626 77 165 2.0 6.0 0.00 0.27 0.27 47 1013.5
20260504215526 75 191 2.0 6.0 0.00 0.27 0.27 42 1020.4
20260504215426 77 170 1.0 6.0 0.00 0.27 0.27 46 1013.5
20260504215256 75 17 1.0 5.0 0.00 0.27 0.27 42 1020.4
20260504215126 75 152 1.0 5.0 0.00 0.27 0.27 42 1020.4
20260504215026 77 146 2.0 6.0 0.00 0.27 0.27 46 1013.4
20260504214856 75 174 1.0 7.0 0.00 0.27 0.27 42 1020.4
20260504214726 78 158 2.0 3.0 0.00 0.27 0.27 45 1013.3
20260504214626 78 177 2.0 8.0 0.00 0.27 0.27 45 1013.4
20260504214526 75 333 1.0 6.0 0.00 0.27 0.27 42 1020.4
20260504214356 78 294 1.0 1.0 0.00 0.27 0.27 46 1013.3
20260504214226 77 308 1.0 5.0 0.00 0.27 0.27 46 1013.4
20260504214126 77 3 1.0 3.0 0.00 0.27 0.27 46 1013.3
20260504214026 75 152 1.0 5.0 0.00 0.27 0.27 42 1020.4
20260504213926 77 151 1.0 3.0 0.00 0.27 0.27 47 1013.4
20260504213826 78 13 1.0 3.0 0.00 0.27 0.27 46 1013.4
20260504213656 75 106 2.0 7.0 0.00 0.27 0.27 42 1020.4
20260504213526 75 25 2.0 3.0 0.00 0.27 0.27 42 1020.4
20260504213426 78 172 2.0 5.0 0.00 0.27 0.27 45 1013.5
20260504213326 75 164 2.0 6.0 0.00 0.27 0.27 42 1020.4
20260504213226 75 209 1.0 3.0 0.00 0.27 0.27 42 1020.4
20260504213056 77 155 1.0 3.0 0.00 0.27 0.27 46 1013.5
20260504212956 75 222 1.0 3.0 0.00 0.27 0.27 42 1020.4
20260504212826 75 267 2.0 2.0 0.00 0.27 0.27 42 1020.4
20260504212726 78 223 1.0 5.0 0.00 0.27 0.27 46 1013.5
20260504212626 75 3 1.0 2.0 0.00 0.27 0.27 42 1020.4
20260504212456 78 155 2.0 8.0 0.00 0.27 0.27 45 1013.5
20260504212356 78 206 2.0 6.0 0.00 0.27 0.27 46 1013.6
20260504212256 75 128 2.0 5.0 0.00 0.27 0.27 42 1020.4
20260504212156 78 11 1.0 5.0 0.00 0.27 0.27 46 1013.6
20260504212056 75 30 1.0 2.0 0.00 0.27 0.27 42 1020.4
20260504211926 78 1 2.0 5.0 0.00 0.27 0.27 45 1013.6
20260504211826 75 208 1.0 3.0 0.00 0.27 0.27 42 1020.4
20260504211726 75 323 2.0 3.0 0.00 0.27 0.27 42 1020.4
20260504211626 78 145 2.0 7.0 0.00 0.27 0.27 45 1013.7
20260504211456 77 173 1.0 3.0 0.00 0.27 0.27 46 1013.6
20260504211356 77 233 1.0 3.0 0.00 0.27 0.27 46 1013.6
20260504211256 75 262 1.0 3.0 0.00 0.27 0.27 42 1020.4
20260504211156 75 160 2.0 6.0 0.00 0.27 0.27 42 1020.4
20260504211056 75 150 2.0 6.0 0.00 0.27 0.27 42 1020.4
20260504210956 77 150 1.0 3.0 0.00 0.27 0.27 46 1013.6
20260504210856 75 162 1.0 3.0 0.00 0.27 0.27 42 1020.4
20260504210756 77 99 2.0 3.0 0.00 0.27 0.27 45 1013.5
20260504210626 77 115 2.0 6.0 0.00 0.27 0.27 46 1013.5
20260504210526 75 237 1.0 5.0 0.00 0.27 0.27 42 1020.4
20260504210356 75 204 2.0 7.0 0.00 0.27 0.27 42 1020.4
20260504210226 77 163 1.0 7.0 0.00 0.27 0.27 46 1013.6
20260504210126 77 93 1.0 3.0 0.00 0.27 0.27 45 1013.5
20260504205956 75 191 1.0 3.0 0.00 0.27 0.27 42 1020.4
20260504205826 77 313 1.0 3.0 0.00 0.27 0.27 46 1013.5
20260504205726 76 172 1.0 5.0 0.00 0.27 0.27 47 1013.4
20260504205626 76 195 1.0 5.0 0.00 0.27 0.27 47 1013.4
20260504205526 75 134 1.0 3.0 0.00 0.27 0.27 42 1020.4
20260504205356 76 160 2.0 3.0 0.00 0.27 0.27 46 1013.4
20260504205256 76 136 2.0 6.0 0.00 0.27 0.27 46 1013.5
20260504205156 75 135 2.0 6.0 0.00 0.27 0.27 42 1020.4
20260504205056 76 192 2.0 5.0 0.00 0.27 0.27 47 1013.5
20260504204926 76 232 2.0 3.0 0.00 0.27 0.27 47 1013.5
20260504204826 75 248 3.0 3.0 0.00 0.27 0.27 42 1020.4
20260504204656 76 106 2.0 8.0 0.00 0.27 0.27 48 1013.6
20260504204556 75 178 2.0 5.0 0.00 0.27 0.27 42 1020.4
20260504204426 77 165 2.0 3.0 0.00 0.27 0.27 47 1013.6
20260504204256 75 191 2.0 7.0 0.00 0.27 0.27 42 1020.4
20260504204156 77 178 2.0 6.0 0.00 0.27 0.27 46 1013.6
20260504204026 77 228 2.0 5.0 0.00 0.27 0.27 47 1013.5
20260504203926 75 172 1.0 6.0 0.00 0.27 0.27 42 1020.4
20260504203826 77 293 1.0 3.0 0.00 0.27 0.27 47 1013.6
20260504203726 77 278 2.0 3.0 0.00 0.27 0.27 47 1013.5
20260504203626 77 179 2.0 5.0 0.00 0.27 0.27 47 1013.5
20260504203526 75 28 2.0 5.0 0.00 0.27 0.27 42 1020.4
20260504203426 77 207 2.0 3.0 0.00 0.27 0.27 47 1013.6
20260504203326 77 182 2.0 5.0 0.00 0.27 0.27 47 1013.7
20260504203156 77 167 2.0 3.0 0.00 0.27 0.27 46 1013.7
20260504203056 77 167 2.0 6.0 0.00 0.27 0.27 45 1013.6
20260504202926 75 312 2.0 7.0 0.00 0.27 0.27 42 1020.4
20260504202756 77 147 2.0 5.0 0.00 0.27 0.27 45 1013.7
20260504202656 75 327 2.0 5.0 0.00 0.27 0.27 42 1020.4
20260504202526 77 302 1.0 8.0 0.00 0.27 0.27 46 1013.8
20260504202426 77 258 2.0 2.0 0.00 0.27 0.27 46 1013.8
20260504202326 77 343 2.0 3.0 0.00 0.27 0.27 46 1013.8
20260504202156 75 193 2.0 3.0 0.00 0.27 0.27 42 1020.4
20260504202056 77 171 2.0 6.0 0.00 0.27 0.27 46 1013.9
20260504201956 77 230 2.0 5.0 0.00 0.27 0.27 46 1013.8
20260504201856 75 358 3.0 6.0 0.00 0.27 0.27 42 1020.4
20260504201756 75 135 2.0 8.0 0.00 0.27 0.27 42 1020.4
20260504201656 78 208 1.0 7.0 0.00 0.27 0.27 45 1013.8
20260504201526 78 278 1.0 3.0 0.00 0.27 0.27 46 1013.8
20260504201426 75 286 1.0 3.0 0.00 0.27 0.27 42 1020.4
20260504201256 78 292 2.0 3.0 0.00 0.27 0.27 46 1013.9
20260504201156 75 130 2.0 5.0 0.00 0.27 0.27 42 1020.4
20260504201056 78 186 2.0 7.0 0.00 0.27 0.27 45 1013.9
20260504200926 75 81 1.0 5.0 0.00 0.27 0.27 42 1020.4
20260504200756 75 90 1.0 3.0 0.00 0.27 0.27 42 1020.4
20260504200626 78 276 1.0 3.0 0.00 0.27 0.27 45 1013.8
20260504200526 78 112 1.0 3.0 0.00 0.27 0.27 46 1013.9
20260504200356 78 81 1.0 2.0 0.00 0.27 0.27 46 1013.9
20260504200256 75 20 1.0 3.0 0.00 0.27 0.27 42 1020.4
20260504200156 78 107 2.0 3.0 0.00 0.27 0.27 45 1013.9
20260504200056 78 185 2.0 5.0 0.00 0.27 0.27 45 1014.0
20260504195956 77 228 2.0 3.0 0.00 0.27 0.27 44 1014.1
20260504195826 75 260 1.0 6.0 0.00 0.27 0.27 42 1020.4
20260504195726 75 323 1.0 6.0 0.00 0.27 0.27 42 1020.4
20260504195626 75 67 1.0 3.0 0.00 0.27 0.27 42 1020.4
20260504195526 77 95 1.0 6.0 0.00 0.27 0.27 47 1014.0
20260504195426 75 145 1.0 3.0 0.00 0.27 0.27 42 1020.4
20260504195326 77 85 2.0 3.0 0.00 0.27 0.27 46 1013.9
20260504195226 75 199 2.0 6.0 0.00 0.27 0.27 42 1020.4
20260504195126 75 192 2.0 5.0 0.00 0.27 0.27 42 1020.4
20260504195026 77 135 2.0 3.0 0.00 0.27 0.27 46 1014.0
20260504194926 77 110 1.0 3.0 0.00 0.27 0.27 45 1014.0
20260504194826 77 83 1.0 6.0 0.00 0.27 0.27 44 1014.1
20260504194656 78 285 2.0 5.0 0.00 0.27 0.27 43 1014.2
20260504194556 78 190 2.0 5.0 0.00 0.27 0.27 44 1014.1
20260504194456 75 212 1.0 6.0 0.00 0.27 0.27 42 1020.4
20260504194356 78 186 1.0 2.0 0.00 0.27 0.27 44 1014.1
20260504194256 75 218 2.0 3.0 0.00 0.27 0.27 42 1020.4
20260504194126 75 243 2.0 7.0 0.00 0.27 0.27 42 1020.4
20260504194026 78 277 1.0 7.0 0.00 0.27 0.27 44 1014.3
20260504193926 75 25 1.0 3.0 0.00 0.27 0.27 42 1020.4
20260504193826 78 31 2.0 2.0 0.00 0.27 0.27 45 1014.3
20260504193656 75 291 1.0 3.0 0.00 0.27 0.27 42 1020.4
20260504193556 78 180 1.0 3.0 0.00 0.27 0.27 44 1014.3
20260504193426 75 218 1.0 3.0 0.00 0.27 0.27 42 1020.4
20260504193326 77 269 1.0 6.0 0.00 0.27 0.27 45 1014.4
20260504193226 75 123 0.0 3.0 0.00 0.27 0.27 42 1020.4
20260504193126 77 21 1.0 2.0 0.00 0.27 0.27 44 1014.3
20260504193026 77 342 2.0 3.0 0.00 0.27 0.27 45 1014.2
20260504192926 75 70 1.0 3.0 0.00 0.27 0.27 42 1020.4
20260504192756 77 104 2.0 3.0 0.00 0.27 0.27 46 1014.3
20260504192626 77 274 2.0 5.0 0.00 0.27 0.27 46 1014.3
20260504192526 75 160 3.0 5.0 0.00 0.27 0.27 42 1020.4
20260504192426 78 191 2.0 7.0 0.00 0.27 0.27 45 1014.3
20260504192256 78 196 2.0 6.0 0.00 0.27 0.27 44 1014.3
20260504192156 75 245 1.0 6.0 0.00 0.27 0.27 42 1020.4
20260504192026 75 178 1.0 5.0 0.00 0.27 0.27 42 1020.4
20260504191856 75 202 2.0 5.0 0.00 0.27 0.27 42 1020.4
20260504191726 78 187 1.0 5.0 0.00 0.27 0.27 43 1014.5
20260504191556 75 257 1.0 6.0 0.00 0.27 0.27 42 1020.4
20260504191456 77 54 1.0 6.0 0.00 0.27 0.27 44 1014.5
20260504191326 77 102 1.0 6.0 0.00 0.27 0.27 43 1014.5
20260504191226 75 168 2.0 6.0 0.00 0.27 0.27 42 1020.4
20260504191056 77 267 1.0 2.0 0.00 0.27 0.27 44 1014.5
20260504190956 77 207 2.0 6.0 0.00 0.27 0.27 43 1014.6
20260504190856 75 180 1.0 3.0 0.00 0.27 0.27 42 1020.4
20260504190756 77 151 1.0 6.0 0.00 0.27 0.27 43 1014.6
20260504190626 75 136 1.0 3.0 0.00 0.27 0.27 42 1020.4
20260504190456 77 177 2.0 3.0 0.00 0.27 0.27 42 1014.6
20260504190356 75 202 1.0 6.0 0.00 0.27 0.27 42 1020.4
20260504190226 75 195 1.0 3.0 0.00 0.27 0.27 42 1020.4
20260504190126 77 243 2.0 6.0 0.00 0.27 0.27 42 1014.6
20260504190026 77 181 2.0 6.0 0.00 0.27 0.27 41 1014.7
20260504185926 77 177 1.0 6.0 0.00 0.27 0.27 42 1014.7
20260504185826 77 193 2.0 3.0 0.00 0.27 0.27 41 1014.8
20260504185726 75 146 2.0 5.0 0.00 0.27 0.27 42 1020.4
20260504185626 75 181 2.0 6.0 0.00 0.27 0.27 42 1020.4
20260504185526 77 254 1.0 3.0 0.00 0.27 0.27 42 1014.7
20260504185426 75 31 1.0 2.0 0.00 0.27 0.27 42 1020.4
20260504185256 77 310 1.0 5.0 0.00 0.27 0.27 42 1014.7
20260504185156 77 169 2.0 5.0 0.00 0.27 0.27 41 1014.7
20260504185056 75 231 2.0 7.0 0.00 0.27 0.27 42 1020.4
20260504184926 77 147 2.0 7.0 0.00 0.27 0.27 41 1014.7
20260504184826 77 169 1.0 3.0 0.00 0.27 0.27 42 1014.7
20260504184726 75 198 2.0 5.0 0.00 0.27 0.27 42 1020.4
20260504184626 75 192 2.0 7.0 0.00 0.27 0.27 42 1020.4
20260504184526 77 317 2.0 7.0 0.00 0.27 0.27 41 1014.8
20260504184356 78 175 2.0 3.0 0.00 0.27 0.27 40 1014.9
20260504184226 75 224 2.0 8.0 0.00 0.27 0.27 42 1020.4
20260504184056 78 57 1.0 6.0 0.00 0.27 0.27 42 1014.9
20260504183956 78 167 2.0 5.0 0.00 0.27 0.27 42 1014.9
20260504183856 78 134 1.0 5.0 0.00 0.27 0.27 42 1014.9
20260504183756 78 25 2.0 3.0 0.00 0.27 0.27 42 1014.8
20260504183656 75 162 1.0 6.0 0.00 0.27 0.27 42 1020.4
20260504183556 77 182 1.0 5.0 0.00 0.27 0.27 43 1014.9
20260504183456 77 33 0.0 2.0 0.00 0.27 0.27 42 1015.0
20260504183356 77 64 1.0 2.0 0.00 0.27 0.27 41 1014.9
20260504183226 75 72 2.0 5.0 0.00 0.27 0.27 42 1020.4
20260504183126 77 113 1.0 2.0 0.00 0.27 0.27 43 1015.0
20260504183026 77 145 1.0 3.0 0.00 0.27 0.27 43 1014.9
20260504182926 77 326 1.0 2.0 0.00 0.27 0.27 42 1015.0
20260504182826 75 45 1.0 5.0 0.00 0.27 0.27 42 1020.4
20260504182726 77 123 1.0 5.0 0.00 0.27 0.27 43 1015.0
20260504182626 77 332 1.0 2.0 0.00 0.27 0.27 43 1015.0
20260504182456 75 61 1.0 3.0 0.00 0.27 0.27 42 1020.4
20260504182356 77 159 1.0 3.0 0.00 0.27 0.27 43 1015.0
20260504182256 77 29 2.0 3.0 0.00 0.27 0.27 43 1014.9
20260504182126 77 249 1.0 7.0 0.00 0.27 0.27 42 1014.9
20260504182026 77 53 2.0 5.0 0.00 0.27 0.27 41 1014.9
20260504181856 77 199 1.0 6.0 0.00 0.27 0.27 42 1015.0
20260504181756 78 39 1.0 6.0 0.00 0.27 0.27 43 1015.0
20260504181656 78 202 1.0 6.0 0.00 0.27 0.27 42 1015.1
20260504181556 75 168 1.0 3.0 0.00 0.27 0.27 42 1020.4
20260504181426 75 94 1.0 3.0 0.00 0.27 0.27 42 1020.4
20260504181326 75 297 1.0 3.0 0.00 0.27 0.27 42 1020.4
20260504181226 77 330 1.0 6.0 0.00 0.27 0.27 43 1015.1
20260504181126 78 123 1.0 2.0 0.00 0.27 0.27 42 1015.2
20260504181026 78 67 1.0 2.0 0.00 0.27 0.27 42 1015.1
20260504180926 78 255 2.0 3.0 0.00 0.27 0.27 42 1015.2
20260504180826 78 231 2.0 6.0 0.00 0.27 0.27 43 1015.1
20260504180726 75 188 1.0 6.0 0.00 0.27 0.27 42 1020.4
20260504180626 75 231 1.0 2.0 0.00 0.27 0.27 42 1020.4
20260504180526 78 79 1.0 3.0 0.00 0.27 0.27 41 1015.1
20260504180426 78 329 1.0 3.0 0.00 0.27 0.27 42 1015.1
20260504180326 75 70 1.0 3.0 0.00 0.27 0.27 42 1020.4
20260504180226 77 180 1.0 5.0 0.00 0.27 0.27 42 1015.1
20260504180126 77 201 1.0 3.0 0.00 0.27 0.27 42 1015.2
20260504180026 77 97 1.0 2.0 0.00 0.27 0.27 41 1015.2
20260504175926 77 302 2.0 3.0 0.00 0.27 0.27 41 1015.2
20260504175826 75 209 2.0 3.0 0.00 0.27 0.27 42 1020.4
20260504175656 77 4 1.0 3.0 0.00 0.27 0.27 42 1015.2
20260504175526 77 338 1.0 3.0 0.00 0.27 0.27 43 1015.2
20260504175426 77 209 1.0 3.0 0.00 0.27 0.27 42 1015.2
20260504175326 77 272 1.0 3.0 0.00 0.27 0.27 42 1015.2
20260504175226 75 275 1.0 3.0 0.00 0.27 0.27 42 1020.4
20260504175126 75 171 1.0 3.0 0.00 0.27 0.27 42 1020.4
20260504175026 76 23 1.0 5.0 0.00 0.27 0.27 43 1015.2
20260504174926 76 301 1.0 3.0 0.00 0.27 0.27 44 1015.2
20260504174826 75 41 1.0 3.0 0.00 0.27 0.27 42 1020.4
20260504174726 75 44 1.0 3.0 0.00 0.27 0.27 42 1020.4
20260504174626 76 341 1.0 3.0 0.00 0.27 0.27 42 1015.3
20260504174526 75 188 2.0 5.0 0.00 0.27 0.27 42 1020.4
20260504174356 75 204 2.0 8.0 0.00 0.27 0.27 42 1020.4
20260504174256 76 238 1.0 3.0 0.00 0.27 0.27 43 1015.3
20260504174156 75 266 0.0 3.0 0.00 0.27 0.27 42 1020.4
20260504174056 75 47 1.0 2.0 0.00 0.27 0.27 42 1020.4
20260504173956 75 98 2.0 5.0 0.00 0.27 0.27 42 1020.4
20260504173856 76 121 1.0 3.0 0.00 0.27 0.27 44 1015.3
20260504173726 76 55 2.0 2.0 0.00 0.27 0.27 44 1015.4
20260504173626 75 96 1.0 5.0 0.00 0.27 0.27 42 1020.4
20260504173456 76 278 2.0 3.0 0.00 0.27 0.27 42 1015.4
20260504173356 75 212 2.0 7.0 0.00 0.27 0.27 42 1020.4
20260504173226 75 217 2.0 7.0 0.00 0.27 0.27 42 1020.4
20260504173056 75 342 1.0 2.0 0.00 0.27 0.27 46 1015.5
20260504172926 75 137 1.0 3.0 0.00 0.27 0.27 45 1015.5
20260504172756 75 51 2.0 3.0 0.00 0.27 0.27 44 1015.5
20260504172626 75 61 2.0 6.0 0.00 0.27 0.27 42 1020.4
20260504172526 75 49 1.0 5.0 0.00 0.27 0.27 42 1020.4
20260504172426 75 67 2.0 6.0 0.00 0.27 0.27 42 1020.4
20260504172256 76 175 3.0 7.0 0.00 0.27 0.27 43 1015.5
20260504172126 76 157 3.0 9.0 0.00 0.27 0.27 43 1015.6
20260504171956 75 73 1.0 3.0 0.00 0.27 0.27 42 1020.4
20260504171856 76 105 2.0 6.0 0.00 0.27 0.27 43 1015.7
20260504171726 76 158 1.0 6.0 0.00 0.27 0.27 44 1015.6
20260504171626 75 81 1.0 3.0 0.00 0.27 0.27 42 1020.4
20260504171526 76 136 1.0 2.0 0.00 0.27 0.27 44 1015.6
20260504171426 75 41 1.0 2.0 0.00 0.27 0.27 42 1020.4
20260504171326 76 60 1.0 3.0 0.00 0.27 0.27 43 1015.6
20260504171156 75 293 1.0 3.0 0.00 0.27 0.27 42 1020.4
20260504171056 76 112 1.0 2.0 0.00 0.27 0.27 43 1015.6
20260504170956 75 127 2.0 3.0 0.00 0.27 0.27 42 1020.4
20260504170826 75 252 2.0 3.0 0.00 0.27 0.27 42 1020.4
20260504170726 75 188 3.0 8.0 0.00 0.27 0.27 42 1020.4
20260504170626 76 158 2.0 8.0 0.00 0.27 0.27 42 1015.6
20260504170526 76 245 2.0 3.0 0.00 0.27 0.27 41 1015.6
20260504170426 75 229 2.0 5.0 0.00 0.27 0.27 42 1020.4
20260504170326 75 183 2.0 6.0 0.00 0.27 0.27 42 1020.4
20260504170226 76 223 1.0 3.0 0.00 0.27 0.27 43 1015.6
20260504170126 75 92 1.0 3.0 0.00 0.27 0.27 42 1020.4
20260504160356 75 208 1.0 6.0 0.00 0.27 0.27 42 1020.4
20260504160256 76 326 2.0 5.0 0.00 0.27 0.27 47 1016.1
20260504160156 76 109 1.0 7.0 0.00 0.27 0.27 47 1016.2
20260504151056 73 58 0.0 0.0 0.00 0.27 0.27 52 1016.4
20260504150956 75 48 1.0 3.0 0.00 0.27 0.27 42 1020.4
20260504150856 75 55 1.0 3.0 0.00 0.27 0.27 42 1020.4
20260504150756 75 56 0.0 2.0 0.00 0.27 0.27 42 1020.4
20260504150656 73 60 0.0 0.0 0.00 0.27 0.27 52 1016.4
20260504150526 73 60 0.0 0.0 0.00 0.27 0.27 52 1016.5
20260504150356 73 72 0.0 1.0 0.00 0.27 0.27 53 1016.4
20260504150256 75 205 0.0 0.0 0.00 0.27 0.27 42 1020.4
20260504150156 73 223 0.0 0.0 0.00 0.27 0.27 52 1016.4
20260504141256 75 346 0.0 1.0 0.00 0.27 0.27 42 1020.4
20260504141125 75 31 0.0 2.0 0.00 0.27 0.27 42 1020.4
20260504141025 75 308 0.0 3.0 0.00 0.27 0.27 42 1020.4
20260504140925 75 306 0.0 0.0 0.00 0.27 0.27 42 1020.4
20260504140825 75 306 0.0 0.0 0.00 0.27 0.27 42 1020.4
20260504140726 72 304 0.0 2.0 0.00 0.27 0.27 47 1016.8
20260504140626 75 33 0.0 1.0 0.00 0.27 0.27 42 1020.4
20260504140525 72 50 0.0 2.0 0.00 0.27 0.27 47 1016.8
20260504140356 75 42 0.0 2.0 0.00 0.27 0.27 42 1020.4
20260504140255 72 316 0.0 0.0 0.00 0.27 0.27 52 1016.9
20260504140155 72 315 0.0 0.0 0.00 0.27 0.27 50 1017.0
20260504130725 75 348 0.0 0.0 0.00 0.27 0.27 42 1020.4
20260504130555 67 348 0.0 0.0 0.00 0.27 0.27 69 1015.8
20260504130426 75 348 0.0 0.0 0.00 0.27 0.27 42 1020.4
20260504130256 75 340 0.0 0.0 0.00 0.27 0.27 42 1020.4
20260504130155 66 311 0.0 0.0 0.00 0.27 0.27 70 1015.9
20260504120255 75 289 0.0 0.0 0.00 0.27 0.27 42 1020.4
20260504120125 54 289 0.0 0.0 0.00 0.27 0.27 92 1014.5
20260504110655 75 292 0.0 0.0 0.00 0.27 0.27 42 1020.4
20260504110555 54 291 0.0 0.0 0.00 0.27 0.27 91 1014.3
20260504110425 54 291 0.0 0.0 0.00 0.27 0.27 91 1014.3
20260504110325 75 292 0.0 0.0 0.00 0.27 0.27 42 1020.4
20260504110155 54 291 0.0 0.0 0.00 0.27 0.27 91 1014.4
20260504100455 54 291 0.0 0.0 0.00 0.27 0.27 89 1014.5
20260504100355 75 292 0.0 0.0 0.00 0.27 0.27 42 1020.4
20260504100255 54 291 0.0 0.0 0.00 0.27 0.27 89 1014.5
20260504100125 54 291 0.0 0.0 0.00 0.27 0.27 89 1014.5
20260504090125 55 288 0.0 0.0 0.00 0.27 0.27 87 1014.6
20260504081925 75 300 0.0 0.0 0.00 0.27 0.27 42 1020.4
20260504081825 56 300 0.0 0.0 0.00 0.27 0.27 82 1014.7
20260504081725 75 300 0.0 0.0 0.00 0.27 0.27 42 1020.4
20260504081625 75 300 0.0 0.0 0.00 0.27 0.27 42 1020.4
20260504081525 75 300 0.0 0.0 0.00 0.27 0.27 42 1020.4
20260504081355 57 300 0.0 0.0 0.00 0.27 0.27 82 1014.7
20260504081255 75 300 0.0 0.0 0.00 0.27 0.27 42 1020.4
20260504081125 57 300 0.0 0.0 0.00 0.27 0.27 82 1014.7
20260504080956 57 300 0.0 0.0 0.00 0.27 0.27 81 1014.7
20260504080825 57 300 0.0 0.0 0.00 0.27 0.27 81 1014.7
20260504080725 75 300 0.0 0.0 0.00 0.27 0.27 42 1020.4
20260504080555 57 300 0.0 0.0 0.00 0.27 0.27 81 1014.7
20260504080425 57 300 0.0 0.0 0.00 0.27 0.27 81 1014.7
20260504080325 75 300 0.0 0.0 0.00 0.27 0.27 42 1020.4
20260504080225 58 300 0.0 0.0 0.00 0.27 0.27 81 1014.7
20260504080125 75 300 0.0 0.0 0.00 0.27 0.27 42 1020.4
20260504070355 59 279 0.0 0.0 0.00 0.27 0.27 77 1015.2
20260504070255 59 279 0.0 0.0 0.00 0.27 0.27 77 1015.2
20260504070155 75 278 0.0 0.0 0.00 0.27 0.27 42 1020.4
20260504060155 60 271 0.0 0.0 0.00 0.27 0.27 74 1015.6
20260504050655 62 297 0.0 2.0 0.00 0.27 0.27 70 1015.9
20260504050555 75 293 1.0 1.0 0.00 0.27 0.27 42 1020.4
20260504050455 62 283 0.0 1.0 0.00 0.27 0.27 70 1015.9
20260504050355 62 289 0.0 1.0 0.00 0.27 0.27 70 1015.9
20260504050225 75 297 1.0 1.0 0.00 0.27 0.27 42 1020.4
20260504050125 62 292 1.0 2.0 0.00 0.27 0.27 70 1016.0
20260504045925 75 292 0.0 0.0 0.00 0.27 0.27 42 1020.4
20260504045825 63 291 0.0 1.0 0.00 0.27 0.27 70 1016.0
20260504045655 63 278 0.0 0.0 0.00 0.27 0.27 69 1016.0
20260504045555 63 278 0.0 0.0 0.00 0.27 0.27 69 1016.0
20260504045455 63 278 0.0 0.0 0.00 0.27 0.27 69 1016.0
20260504045355 75 281 0.0 1.0 0.00 0.27 0.27 42 1020.4
20260504045255 75 283 0.0 0.0 0.00 0.27 0.27 42 1020.4
20260504045155 63 283 0.0 0.0 0.00 0.27 0.27 68 1016.1
20260504045055 63 283 1.0 0.0 0.00 0.27 0.27 68 1016.1
20260504044955 63 289 2.0 2.0 0.00 0.27 0.27 68 1016.1
20260504044855 75 289 2.0 3.0 0.00 0.27 0.27 42 1020.4
20260504044725 63 285 1.0 3.0 0.00 0.27 0.27 68 1016.0
20260504044625 63 300 1.0 3.0 0.00 0.27 0.27 68 1016.0
20260504044455 75 318 1.0 2.0 0.00 0.27 0.27 42 1020.4
20260504044355 63 294 2.0 2.0 0.00 0.27 0.27 68 1016.0
20260504044225 75 298 2.0 3.0 0.00 0.27 0.27 42 1020.4
20260504044125 63 299 3.0 3.0 0.00 0.27 0.27 68 1016.0
20260504044025 63 303 2.0 3.0 0.00 0.27 0.27 68 1016.0
20260504043855 75 272 1.0 3.0 0.00 0.27 0.27 42 1020.4
20260504043725 63 247 1.0 3.0 0.00 0.27 0.27 69 1016.0
20260504043625 75 298 1.0 3.0 0.00 0.27 0.27 42 1020.4
20260504043525 75 308 1.0 3.0 0.00 0.27 0.27 42 1020.4
20260504043425 75 289 1.0 3.0 0.00 0.27 0.27 42 1020.4
20260504043325 75 296 1.0 3.0 0.00 0.27 0.27 42 1020.4
20260504043225 63 280 2.0 3.0 0.00 0.27 0.27 69 1016.0
20260504043125 63 291 2.0 3.0 0.00 0.27 0.27 69 1016.0
20260504042956 75 283 2.0 3.0 0.00 0.27 0.27 42 1020.4
20260504042855 75 285 1.0 3.0 0.00 0.27 0.27 42 1020.4
20260504042755 75 294 2.0 3.0 0.00 0.27 0.27 42 1020.4
20260504042655 63 296 2.0 5.0 0.00 0.27 0.27 70 1016.0
20260504042525 63 295 2.0 3.0 0.00 0.27 0.27 70 1016.0
20260504042425 75 284 2.0 3.0 0.00 0.27 0.27 42 1020.4
20260504042325 62 288 1.0 3.0 0.00 0.27 0.27 71 1015.9
20260504042225 75 299 1.0 3.0 0.00 0.27 0.27 42 1020.4
20260504042055 62 293 1.0 2.0 0.00 0.27 0.27 71 1016.0
20260504041955 75 300 0.0 2.0 0.00 0.27 0.27 42 1020.4
20260504041855 62 298 1.0 2.0 0.00 0.27 0.27 71 1015.9
20260504041755 62 296 1.0 3.0 0.00 0.27 0.27 71 1015.9
20260504041655 75 300 1.0 2.0 0.00 0.27 0.27 42 1020.4